sat.trackr.live / text

‹ back to catalog

STARLINK-34909

NORAD 65401 · 2025-191Y

PAYLOAD ACTIVE UNKNOWN

§ Identity

Operator
Country
US
Launch date
2025-08-30
Launch site
AFWTR
Launch vehicle
Mass (kg)
RCS (m²)

Purposes: comms

External: N2YO · Heavens-Above · Gunter

§ Orbital elements

Epoch: 2026-05-25T03:12:03.868704Z

Period
95.64 min
Inclination
97.4481°
Eccentricity
0.0001707
Mean motion
15.05662989 rev/d
Perigee alt
548.3 km
Apogee alt
550.7 km
Semi-major
6,927.6 km
B*
4.5623e-4
RAAN
16.5237°
Arg perigee
93.7077°
Mean anomaly
266.4346°
Rev number
4,178

§ Raw data

STARLINK-349091 65401U 25191Y   26145.13337811  .00006532  00000+0  45623-3 0  99972 65401  97.4481  16.5237 0001707  93.7077 266.4346 15.05662989 41785

JSON: /api/v1/satellites/65401 · /tle

For live sub-satellite position, see the globe view (requires WebGL).

§ Visibility from observer

Set your observer location to see the next 7 days of passes ≥ 10°. The values pass through the URL so the page stays shareable.

No JS? Fill the form by hand. The geolocation button needs JavaScript.